World > North America > United States > Virginia

Hourly Kingstowne, VA Regional Weather

Feedback E-mail the Weather

Quick WX

Kingstowne, VA Weather Maps

°F °C°F °C
Kingstowne Weather Map
UTC Time: 7/6/2022, 22:11
Your Time:

Kingstowne, VA Regional Weather

Expires:202207062100;;803345
ASUS41 KLWX 062018
RWRLWX

REGIONAL WEATHER ROUNDUP
NATIONAL WEATHER SERVICE BALTIMORE MD/WASHINGTON DC
400 PM EDT WED JUL 06 2022

Note: "FAIR" indicates few or no clouds below 12,000 feet
with no significant weather and/or obstructions to visibility.
 TC=TEMPERATURE CELSIUS

 * =Non NWS site. Station does not report precipitation (e.g. rain,
    snow, etc.), thunder, or fog.


DCZ001-MDZ009-015-VAZ040>042-051-053>054-062100-
WASHINGTON METRO
  
CITY           SKY/WX    TMP DP  RH WIND       PRES   REMARKS
WASHINGTON NAT PTSUNNY   91  67  44 VRB7G18   29.88F HX  94           
DULLES         PTSUNNY   92  69  47 VRB6      29.88F HX  97           
ANDREWS AFB    PTSUNNY   90  68  47 W12G18    29.87F HX  93           
FT BELVOIR     PTSUNNY   91  72  54 S5        29.87F HX  98           
QUANTICO       PTSUNNY   88  73  61 SE3       29.89F HX  95           
COLLEGE PARK*  PTSUNNY   90  74  58 W6        29.87F HX  99           
LEESBURG*      PTSUNNY   90  73  58 W3        29.89F HX  98           
MANASSAS*      PTSUNNY   91  74  57 CALM      29.89F HX 100           
GAITHERSBURG*  PTSUNNY   90  72  55 W9        29.91F HX  97           

$$


SKY/WX - Weather  TMP - Temperature  DP - Dew Point  RH - Humidity
WIND - Wind Direction/Speed PRES - Barometric Pressure VSB - Visibility
WCI - Wind Chill Index E13G22 Wind - East Wind 13 mph/Gusts of 22 mph

Trending Headlines

Kingstowne Radar Loop



Kingstowne Quick Facts


National Two Day Weather Forecast


E-mail the Kingstowne Weather Forecast

Voice your opinion or tell us about page issues...